Home   Weather   Hennef (Sieg)   Past weeks

Flag for Germany Past Weather in Hennef (Sieg), North Rhine-Westphalia, Germany — Yesterday and Last 2 Weeks

Now
59 °F

Overcast.


Feels Like: 59 °F
Forecast: 52 / 67 °F
Wind: 5 mph from Southwest

Location: Aachen-Orsbach

Current Time: Aug 19, 2017 at 9:03:03 pm

Latest Report: Aug 19, 2017 at 7:00 pm


Visibility: 41 mi

Pressure: 30.10 "Hg

Humidity: 80%

Dew Point: 53 °F

Location of Hennef (Sieg)Location

Past Weather in Hennef (Sieg) — Graph

°F

Hennef (Sieg) Temperature Yesterday

Maximum temperature yesterday: 65 °F (at 12:00 am)
Minimum temperature yesterday: 58 °F (at 10:00 pm)
Average temperature yesterday: 63 °F

High & Low Weather Summary for the Past Weeks

 TemperatureHumidityPressure
High76 °F (Aug 14, 6:00 pm)100% (Aug 5, 9:00 am)30.24 "Hg (Aug 5, 9:00 am)
Low51 °F (Aug 6, 6:00 am)42% (Aug 6, 6:00 pm)29.76 "Hg (Aug 8, 3:00 pm)
Average62 °F81%30.04 "Hg
* Reported Aug 4 7:00 pm — Aug 19 7:00 pm, Hennef (Sieg). Weather by CustomWeather, © 2017

Note: Actual official high and low records may vary slightly from our data, if they occured in-between our weather recording intervals... More about our weather records

Advertising

Hennef (Sieg) Weather History for the Previous 24 Hours

Scroll right to see more
 ConditionsComfort  
Time TempWeatherWind HumidityBarometerVisibility
7:00 pm
Sat, Aug 19
59 °FOvercast.5 mph80%30.10 "Hg40 mi
6:00 pm60 °FOvercast.3 mph83%30.09 "Hg43 mi
4:00 pm61 °FLight rain. Overcast.8 mph79%30.07 "Hg7 mi
3:00 pm63 °FOvercast.8 mph68%30.06 "Hg14 mi
1:00 pm60 °FOvercast.8 mph74%30.06 "Hg19 mi
12:00 pm60 °FPartly sunny.10 mph78%30.04 "Hg9 mi
10:00 am56 °FOvercast.9 mph87%30.03 "Hg16 mi
9:00 am54 °FOvercast.9 mph86%30.03 "Hg34 mi
8:00 amN/APassing clouds.5 mphN/AN/A17 mi
7:00 am53 °FSunny.9 mph88%30.01 "Hg22 mi
6:00 am53 °FClear.9 mph89%30.01 "Hg22 mi
4:00 am53 °FClear.8 mph90%30.00 "Hg25 mi
3:00 am54 °FClear.7 mph90%30.00 "Hg22 mi
1:00 am56 °FClear.6 mph83%29.98 "Hg31 mi
12:00 am56 °FClear.6 mph88%29.97 "Hg25 mi
10:00 pm
Fri, Aug 18
58 °FOvercast.7 mph86%29.96 "Hg43 mi
9:00 pm59 °FLight rain. Overcast.10 mph91%29.93 "Hg10 mi
Weather by CustomWeather, © 2017

See weather overviewHow to use our weather pages